GSAT-18

Last updated on Sat Apr 26 2025 00:02:42 GMT+0000 (Coordinated Universal Time)

1 41793U 16060A 25114.71220330 -.00000074 00000+0 00000+0 0 9998 2 41793 0.0191 225.5335 0004017 187.6116 130.2211 1.00271922 31327
UTC large
Height (km)
Speed (km/s)
/
Latitude / Longitude
Inclination (degrees)
Orbital Period (minutes)
Azimuth
Elevation
Range (km)
Doppler Factor

Next 0 passes for location: London (51.5072 / 0.1276)

Sorry there are no passes over London.